Regional Weather Roundup
Issued by NWS

Home | Current Version | Previous Version | Text Only | Print | Product List | Glossary On
Versions: 1 2 3 4 5 6 7 8 9 10 11 12 13 14 15 16 17 18 19 20 21 22 23 24 25 26 27 28 29 30 31 32 33 34 35 36 37 38 39 40 41 42 43 44 45 46 47 48 49 50
000
ASUS43 KOAX 211210
RWRNE

WEATHER ROUNDUP FOR NEBRASKA
NATIONAL WEATHER SERVICE OMAHA NE
700 AM CDT SAT OCT 21 2017

NOTES: SATELLITE DATA IS BEING USED TO AUGMENT CLOUD COVER ABOVE
       12000 FEET.
       "FAIR" INDICATES FEW OR NO CLOUDS BELOW 12,000 FEET WITH NO
       SIGNIFICANT WEATHER AND/OR OBSTRUCTIONS TO VISIBILITY.


NEZ001>004-019>022-054>056-211300-
NEBRASKA PANHANDLE

CITY           SKY/WX    TMP DP  RH WIND       PRES   REMARKS
SCOTTSBLUFF    CLOUDY    48  22  35 W21G32    29.74R
6HR MIN TEMP:  48; 6HR MAX TEMP:  58; 6HR PCP: TRACE;

ALLIANCE       CLOUDY    47  25  42 NW18G37   29.72R
6HR MIN TEMP:  46; 6HR MAX TEMP:  61; 6HR PCP: TRACE;

CHADRON        CLOUDY    49  26  41 NW26G37   29.71R
6HR MIN TEMP:  49; 6HR MAX TEMP:  64; 6HR PCP: TRACE;

GORDON         DRIZZLE   47  39  72 N9        29.68R
6HR MIN TEMP:  47; 6HR MAX TEMP:  65;

KIMBALL        CLOUDY    44  18  34 NW28G41   29.80R
SIDNEY         CLOUDY    48  19  31 NW26G38   29.79R
6HR MIN TEMP:  48; 6HR MAX TEMP:  56;

$$

NEZ057>060-069>072-079>082-211300-
SOUTHWEST NEBRASKA

CITY           SKY/WX    TMP DP  RH WIND       PRES   REMARKS
NORTH PLATTE   CLEAR     54  39  57 NW21      29.59R
6HR MIN TEMP:  53; 6HR MAX TEMP:  64;

IMPERIAL       CLEAR     52  28  39 NW20G29   29.69R
6HR MIN TEMP:  51; 6HR MAX TEMP:  61;

LEXINGTON      CLEAR     60  54  79 SW7       29.52R
MCCOOK         CLEAR     57  40  52 W17       29.58R
6HR MIN TEMP:  57; 6HR MAX TEMP:  67;

OGALLALA       MOCLDY    54  31  42 NW15G21   29.70R
$$

NEZ005>010-023>029-035>040-094-211300-
NORTH CENTRAL NEBRASKA

CITY           SKY/WX    TMP DP  RH WIND       PRES   REMARKS
VALENTINE      CLOUDY    55  38  52 N18G30    29.58R
6HR MIN TEMP:  55; 6HR MAX TEMP:  65;

AINSWORTH      MOCLDY    55  45  68 NW18      29.55S
BROKEN BOW     PTCLDY    53  51  93 N3        29.51R
6HR MIN TEMP:  52; 6HR MAX TEMP:  64;

O`NEILL        PTCLDY    60  59  97 S6        29.50R
ORD            CLOUDY    62  59  90 NE3       29.50R
6HR MIN TEMP:  62; 6HR MAX TEMP:  66;

THEDFORD       PTCLDY    55  43  62 NW14G21   29.60R
$$

NEZ041-046>049-061>064-073>077-083>087-211300-
SOUTH CENTRAL NEBRASKA

CITY           SKY/WX    TMP DP  RH WIND       PRES   REMARKS
GRAND ISLAND   CLOUDY    67  62  84 S21G29    29.54R
6HR MIN TEMP:  66; 6HR MAX TEMP:  69;

AURORA         CLOUDY    69  61  77 S21G36    29.54R
HASTINGS       CLOUDY    67  60  78 S18G25    29.55R
6HR MIN TEMP:  66; 6HR MAX TEMP:  69;

HEBRON         CLOUDY    69  63  79 S23G31    29.59R
HOLDREGE       CLOUDY    63  59  85 S16       29.53R
KEARNEY        MOCLDY    64  60  87 S22G28    29.52R
YORK           CLOUDY    68  63  83 S25G35    29.55S
$$

NEZ011>018-030>034-042>045-211300-
NORTHEAST NEBRASKA

CITY           SKY/WX    TMP DP  RH WIND       PRES   REMARKS
NORFOLK        MOCLDY    69  61  75 S20G30    29.53R
6HR MIN TEMP:  66; 6HR MAX TEMP:  69;

ALBION         CLOUDY    69  62  77 S21       29.53R
BLAIR          CLOUDY    66  62  88 S13       29.62S
COLUMBUS       MOCLDY    70  61  73 S18G26    29.55R
FREMONT        CLOUDY    69  61  75 S16G28    29.58S
TEKAMAH        CLOUDY    67  61  81 SE13G23   29.59S
6HR MIN TEMP:  66; 6HR MAX TEMP:  67; 6HR PCP: TRACE;

WAYNE          CLOUDY    69  64  86 S15       29.53S
$$

NEZ050>053-065>068-078-088>093-211300-
SOUTHEAST NEBRASKA

CITY           SKY/WX    TMP DP  RH WIND       PRES   REMARKS
LINCOLN        CLOUDY    69  62  78 S23G30    29.59S
6HR MIN TEMP:  68; 6HR MAX TEMP:  70;

OMAHA EPPLEY   CLOUDY    67  61  81 S17       29.62S
6HR MIN TEMP:  65; 6HR MAX TEMP:  68; 6HR PCP:  0.08;

BEATRICE       CLOUDY    68  63  82 S22G32    29.61S
FALLS CITY     CLOUDY    67  60  78 S24G33    29.70S
6HR MIN TEMP:  66; 6HR MAX TEMP:  68; 6HR PCP: TRACE;

NEBRASKA CITY  CLOUDY    67  64  89 S22G31    29.67S
PLATTSMOUTH    CLOUDY    67  62  85 S16G29    29.64F
$$

NEZ044-045-051>053-067-211300-
OMAHA AREA

CITY           SKY/WX    TMP DP  RH WIND       PRES   REMARKS
OMAHA EPPLEY   CLOUDY    67  61  81 S17       29.62S
6HR MIN TEMP:  65; 6HR MAX TEMP:  68; 6HR PCP:  0.08;

BLAIR          CLOUDY    66  62  88 S13       29.62S
FREMONT        CLOUDY    69  61  75 S16G28    29.58S
MILLARD        CLOUDY    68  63  83 S13G20    29.63S
OFFUTT AFB     MOCLDY    67  61  79 S20G26    29.63R
PLATTSMOUTH    CLOUDY    67  62  85 S16G29    29.64F
WAHOO          CLOUDY    69  61  76 S20G30    29.59R
$$



USA.gov is the U.S. government's official web portal to all federal, state and local government web resources and services.